www.pogodaiklimat.ru

Погода и климат >> Архив погоды >> Россия >> Ханты-Мансийский АО >> Березово


АРХИВ ПОГОДЫ в Березово

Время (UTC), дата Ветер
(напр.,м/с)
 
Видим.   Явления Облачность Т
(С)
Тd
(С)
f
(%)
Тe
(С)
Тes
(С)
Комфортность P
(гПа)
Po
(гПа)
Тmin
(С)
Tmax
(С)
R
(мм)
R24
(мм)
S
(см)
03 10.09 ЮЗ 4 50 км 10/0
[Ac As]
+5.0 +2.8 86 +1 +1 1017.5 1013.4 +0.7
06 10.09 З 5 10 км слаб. дождь 10/4 600 м
[Sc Ac As]
+7.6 +6.3 91 +4 +4 1014.7 1010.7
09 10.09 СЗ 5 50 км {дождь} 9/6 1380 м
[Sc Ac und]
+13.9 +8.3 69 +12 +13 1014.0 1010.1
12 10.09 СЗ 9-12
{12}
50 км {дождь} 9/9 1200 м
[Sc]
+14.1 +6.9 62 +12 +12 1016.2 1012.3
15 10.09 С 8-10
{12}
20 км 3/0
[Ac trans]
+11.3 +5.5 67 +8 +8 1019.8 1015.8 +15.2 0.4
18 10.09 С 5
{12}
20 км 4/4 1200 м
[Sc]
+9.0 +6.6 85 +6 +6 1023.4 1019.4
21 10.09 СЗ 2 20 км ясно +2.3 +1.8 96 -1 -1 1025.1 1021.0
00 11.09 З 2 20 км 9/0
[Ac und]
+1.1 +1.1 100 -3 -3 1026.5 1022.3
03 11.09 З 2 50 км 10/0
[Ac trans Ci fib]
+3.8 +3.3 97 +1 +1 1026.6 1022.5 -0.5
09 11.09 ЮЗ 2 50 км 10/9 720 м
[Cb cap Ac und]
+9.2 +5.9 80 +8 +8 1024.9 1020.9
12 11.09 нст 1 50 км в посл. час ливневой дождь 10/3 840 м
[Cb cap Ac und]
+9.9 +8.7 92 +9 +10 1022.8 1018.8
15 11.09 нст 1 20 км в посл. час ливневой дождь 10/3 800 м
[Cb cap Ac und]
+9.8 +9.4 97 +9 +9 1021.3 1017.3 +10.0 0.3
18 11.09 нст 1 20 км {ливн. осадки} 10/10 1230 м
[Sc]
+9.0 +8.6 97 +8 +8 1019.4 1015.4
21 11.09 В 2 10 км слаб. ливневой дождь 10/8 180 м
[Cb cap Ac As]
+8.4 +8.0 97 +6 +6 1018.3 1014.3
00 12.09 нст 1 20 км {ливн. осадки} 10/10 150 м
[St]
+7.7 +7.3 97 +7 +7 1018.4 1014.4
03 12.09 СВ 2 50 км 10/10 180 м
[St]
+7.4 +7.0 97 +5 +5 1020.2 1016.2 +7.4 0.0
06 12.09 СВ 2 50 км в посл. час морось 10/10 180 м
[St]
+8.9 +8.3 96 +7 +7 1021.3 1017.3
09 12.09 нст 1 50 км 10/10 270 м
[St]
+10.3 +7.4 82 +10 +10 1021.7 1017.7
12 12.09 нст 1 50 км 10/4 900 м
[Sc Ac und]
+10.4 +7.7 83 +10 +10 1020.9 1016.9
15 12.09 Ю 2 20 км 9/0
[Ac und]
+9.3 +8.3 93 +7 +7 1019.5 1015.5 +11.0 0.0
18 12.09 ЮЗ 2 20 км 10/0
[Ac trans Ci fib]
+8.1 +7.7 97 +6 +6 1017.4 1013.4
21 12.09 ЮЗ 2 10 км слаб. ливневой дождь 10/4 480 м
[Cb cap Ac und]
+8.8 +8.4 97 +7 +7 1015.0 1011.0
00 13.09 ЮЗ 2 20 км в посл. час ливневой дождь 10/4 210 м
[Cb cap Ac und]
+8.9 +8.5 97 +7 +7 1012.9 1008.9
03 13.09 ЮЗ 4 50 км 10/4 120 м
[St Ac und]
+9.7 +9.3 97 +7 +7 1011.1 1007.1 +8.0 0.6
06 13.09 ЮЗ 3 50 км 9/4 200 м
[St Ac und]
+12.9 +12.2 96 +11 +12 1009.0 1005.1
09 13.09 СЗ 4 50 км 8/3 600 м
[Sc Ac trans]
+15.9 +12.7 81 +15 +16 1008.4 1004.6
12 13.09 СЗ 4 50 км 6/3 900 м
[Cu med, cong Ci fib]
+17.9 +11.3 65 +18 +18 1007.8 1004.0
15 13.09 нст 1 20 км 10/0
[Ac trans Ci fib]
+12.4 +11.3 93 +12 +12 1007.9 1004.0 +18.1
18 13.09 нст 1 20 км 9/0
[Ac und]
+12.1 +11.7 97 +12 +12 1007.9 1004.0
21 13.09 20 км 10/0
[Ac und]
+11.2 +10.8 97 1007.5 1003.6
00 14.09 С 1 2000 м дымка ?/? +10.6 +10.2 97 +10 +10 1007.1 1003.2
03 14.09 нст 1 500 м туман {снег} ?/? +11.1 +10.9 99 +11 +11 1007.3 1003.4 +10.5 0.3
06 14.09 С 2 1000 м дымка {дождь, туман} 10/10 90 м
[St]
+11.4 +11.0 97 +10 +10 1007.5 1003.6
09 14.09 СВ 2 50 км 10/10 180 м
[St]
+12.8 +12.1 96 +12 +12 1008.0 1004.1
12 14.09 СВ 2 50 км 10/10 240 м
[St]
+12.6 +11.7 94 +12 +12 1008.1 1004.2
15 14.09 СВ 2 20 км 10/10 120 м
[St]
+11.6 +11.0 96 +10 +10 1007.9 1004.0 +13.2
18 14.09 В 2 500 м туман ?/? +11.1 +11.1 100 +10 +10 1007.4 1003.5
21 14.09 В 2 500 м туман ?/? +10.8 +10.8 100 +9 +9 1006.0 1002.1
00 15.09 ЮВ 2 500 м туман ?/? +10.1 +10.1 100 +8 +8 1004.6 1000.7
03 15.09 ЮВ 2 1000 м слаб. ливневой дождь {туман} ?/? +10.9 +10.9 100 +9 +9 1002.3 998.4 +9.8 1
06 15.09 Ю 3 4000 м в посл. час ливневой дождь {туман} 10/10 120 м
[St]
+13.2 +13.2 100 +12 +12 1001.2 997.3
09 15.09 ЮЗ 4 50 км 9/6 600 м
[Sc Ac und]
+16.5 +12.9 79 +16 +16 1001.1 997.2
12 15.09 ЮЗ 4 50 км 10/0
[Cs]
+15.6 +9.2 66 +15 +15 1000.9 997.0
15 15.09 штиль 0 20 км 10/4 1000 м
[Sc Cs]
+10.9 +10.1 95 +10 +10 1000.5 996.6 +16.7 0.0
18 15.09 нст 1 4000 м дымка 6/0
[Ac trans Ci fib]
+8.0 +8.0 100 +7 +7 998.8 994.9
21 15.09 З 3 20 км 10/0
[Ci fib]
+7.4 +6.1 91 +4 +4 997.9 994.0
00 16.09 З 3 20 км 10/0
[Ci fib]
+4.4 +3.4 93 +1 +1 998.3 994.3
03 16.09 ЮЗ 3 50 км ясно +5.7 +5.2 97 +2 +3 998.5 994.5 +3.9
06 16.09 ЮЗ 5 50 км 3/0
[Ci fib]
+11.7 +4.2 60 +9 +11 998.3 994.5
09 16.09 ЮЗ 7-10
{10}
50 км 8/8 1260 м
[Sc]
+13.1 +3.6 52 +11 +11 998.0 994.2
12 16.09 ЮЗ 7-10
{10}
50 км 5/3 1200 м
[Sc Ac trans]
+12.2 +2.0 50 +10 +10 998.1 994.3
15 16.09 ЮЗ 4
{10}
20 км 8/0
[Ci fib]
+5.8 +3.4 85 +2 +2 997.3 993.3 +13.2
18 16.09 ЮЗ 2
{10}
20 км ясно +3.5 +3.0 97 0 0 998.0 994.0
21 16.09 20 км 3/0
[Ac trans]
+0.4 +0.4 100 997.4 993.4

 

Местоположение метеостанции Березово (Ханты-Мансийский АО, Россия): широта 63.92 долгота 65.03 высота над уровнем моря 32 м.

В архиве по умолчанию представлена погода в Березово за последнюю неделю. Архивные данные за месяц целиком и за предыдущие месяцы, начиная с января 2011 года, Вы можете получить, выбрав интересующий диапазон дат из раскрывающегося списка и нажав кнопку "Ввод!".


*Определитесь, кто Вы:
робот инопланетянин человек

Внимание! Время в таблицах - всемирное. Для получения местного времени необходимо прибавить поправку, которая равна 5 ч.

Смотрите также архив погоды в соседних городах и на ближайших метеорологических станциях:

Погода в Игриме (Ханты-Мансийский АО, Россия) (85 км)
Погода в Казым-Мысе (Ханты-Мансийский АО, Россия) (110 км)
Погода в Казыме (Ханты-Мансийский АО, Россия) (110 км)
Погода в Сосьве (Ханты-Мансийский АО, Россия) (147 км)
Погода в Мужах (Ямало-Ненецкий АО, Россия) (163 км)
Погода в Октябрьском (Ханты-Мансийский АО, Россия) (171 км)
Погода в Саранпауле (Ханты-Мансийский АО, Россия) (206 км)
Погода в Питляре (Ямало-Ненецкий АО, Россия) (217 км)
Погода в Вонъегане (Ханты-Мансийский АО, Россия) (219 км)
Погода в Юильске (Ханты-Мансийский АО, Россия) (226 км)

Пояснения к столбцам:

Ветер - указаны скорость ветра в м/с - средняя за 10 мин, порывы в срок и между сроками (в фигурных скобках) и направление, откуда дует ветер: С - северный, СВ - северо-восточный, В - восточный, ЮВ - юго-восточный, Ю - южный, ЮЗ - юго-западный, З - западный, СЗ - северо-западный.
Видимость - горизонтальная дальность видимости в метрах или километрах. При видимости от 1 до 10 км при отсутствии осадков обычно наблюдается дымка, при ухудшении видимости до 1 км и менее - туман. В сухую погоду видимость может ухудшаться дымом, пылью или мглою.
Явления - указаны атмосферные явления, наблюдавшиеся в срок или в последний час перед сроком; фигурными скобками обозначены явления, наблюдавшиеся между сроками (за 1-3 часа до срока); квадратными скобками обозначены град или гололедные отложения с указанием их диаметра в мм.
Облачность - указаны через наклонную черту общая и нижняя облачность в баллах и высота нижней границы облаков в метрах; квадратными скобками обозначены формы облаков: Ci - перистые, Cs - перисто-слоистые, Cc - перисто-кучевые, Ac - высококучевые, As - высокослоистые, Sc - слоисто-кучевые, Ns - слоисто-дождевые, Cu - кучевые, Cb - кучево-дождевые. Подробнее классификацию облаков см. в Атласе облаков (PDF).
T - Температура воздуха - температура, измеренная на высоте 2 м над землей.
Td - Температура точки росы - температура, при понижении до которой содержащийся в воздухе водяной пар достигнет насыщения.
f - Относительная влажность воздуха - влажноcть воздуха, измеренная на высоте 2 м над землей.
Te - Эффективная температура - температура, которую ощущает одетый по сезону человек в тени. Характеристика душности погоды. При расчете учитывается влияние влажности воздуха и скорости ветра на теплоощущения человека.
Tes - Эффективная температура на солнце - температура, которую ощущает человек, с поправкой на солнечный нагрев. Характеристика знойности погоды. Зависит от высоты солнца над горизонтом, облачности и скорости ветра. Ночью, в пасмурную погоду, а также при ветре 12 м/с и более поправка равна нулю.
P - Атмосферное давление - приведенное к уровню моря атмосферное давление.
Po - Атмосферное давление - измеренное на уровне метеостанции атмосферное давление.
Tmin - Минимальная температура - минимум температуры воздуха на высоте 2 м над землей.
Tmax - Максимальная температура - максимум температуры воздуха на высоте 2 м над землей.
R - Количество осадков - Количество выпавших осадков за период времени, мм. При наведении курсора мыши на число - период времени, за который выпало указанное количество осадков.
R24 - Количество осадков - Количество выпавших осадков за 24 часа, мм.
S - Снежный покров - Высота снежного покрова, см. При наведении курсора мыши на число - состояние снежного покрова и степень покрытия местности в баллах.